User: anonymous   Login
Location: Maccacari
(45.1333°N, 11.1333°E)
Time: 20:57:31
(UTC+00:00)
Language:

Explorer 7 - Orbit

View from above orbital plane
View from above orbital plane
View from above satellite
View from above satellite

Ground track
Ground track

The orbit data is extracted from the following two-line orbital elements,

1    22U 59009A   21021.17128159  .00000017  00000-0  24547-4 0  9991
2    22  50.2833 160.3671 0138870  10.7003 349.6847 14.95385793257907
Epoch (UTC): 21 January 2021 04:06:38
Eccentricity: 0.0138870
inclination: 50.2833°
perigee height: 484 km
apogee height: 678 km
right ascension of ascending node: 160.3671°
argument of perigee: 10.7003°
revolutions per day: 14.95385793
mean anomaly at epoch: 349.6847°
orbit number at epoch: 25790

The dashed part of the orbit path shows where the satellite is in the earth's shadow,  

DLR